DW0333 Tranby-Lier NO current weather conditions

sailwx.info

Wind from 280 at 3 knots

Air temperature 26.7° C
Dewpoint 14.4° C

Last reported at 2014-Jul-22 10:38 UTC.
Time now 2014-Jul-22 11:23 UTC

Location: N 59°50' E 010°17'.
View on Google Maps.

See reports from other nearby stations

  
Tides and Currents Weather Stations Pressure Air Temp Water Temp Dewpoint Dewpoint Depression Visibility Wind Speed Wind Dir Waves Ship Positions
date/time (UTC)wind fromknots sea level pressurealtimeterstation pressurevisibilityair tempwater tempwave heightnotes
2014-Jul-22 10:38 280 3 26.7
2014-Jul-22 10:23 300 3 26.1
2014-Jul-22 10:07 276 2 26.1
2014-Jul-22 09:53 279 2 25.6
2014-Jul-22 09:37 221 1 25.6
2014-Jul-22 09:23 265 2 24.4
2014-Jul-22 09:07 193 2 23.9
2014-Jul-22 08:51 291 2 23.9
2014-Jul-22 08:37 258 2 23.9
2014-Jul-22 08:22 240 2 23.9
2014-Jul-22 08:06 136 0 23.3
2014-Jul-22 07:51 281 2 22.8
2014-Jul-22 07:37 166 1 23.3
2014-Jul-22 07:20 250 1 22.8
2014-Jul-22 07:04 260 1 22.8
2014-Jul-22 06:49 154 1 22.8
2014-Jul-22 06:34 066 0 21.7
2014-Jul-22 06:18 133 0 21.1
2014-Jul-22 06:03 134 20.6
2014-Jul-22 05:48 134 0 20.6
2014-Jul-22 05:33 321 20.0
2014-Jul-22 05:17 321 19.4
2014-Jul-22 05:02 322 0 18.9
2014-Jul-22 04:47 033 1 19.4
2014-Jul-22 04:32 034 1 19.4
2014-Jul-22 04:16 338 0 20.0
2014-Jul-22 04:01 337 19.4
2014-Jul-22 03:47 338 0 19.4
2014-Jul-22 03:31 340 0 19.4
2014-Jul-22 03:17 040 0 18.9
2014-Jul-22 03:02 032 1 19.4
2014-Jul-22 02:45 293 0 19.4
2014-Jul-22 02:29 130 0 20.0
2014-Jul-22 02:14 129 20.0
2014-Jul-22 02:00 130 20.0
2014-Jul-22 01:45 130 20.0
2014-Jul-22 01:28 129 20.0
2014-Jul-22 01:13 130 20.0
2014-Jul-22 00:58 130 0 20.0
2014-Jul-22 00:43 140 20.0
2014-Jul-22 00:28 140 0 20.0
2014-Jul-22 00:13 139 0 20.0
2014-Jul-21 23:58 138 0 20.0
2014-Jul-21 23:42 138 0 20.6
2014-Jul-21 23:27 133 0 20.6
2014-Jul-21 23:13 132 0 20.6
2014-Jul-21 22:58 132 0 21.1
2014-Jul-21 22:41 132 0 21.1
2014-Jul-21 22:27 132 0 21.1
2014-Jul-21 22:11 132 0 21.7
2014-Jul-21 21:56 132 1 21.7
2014-Jul-21 21:42 131 1 21.7
2014-Jul-21 21:26 144 1 22.2
2014-Jul-21 21:09 128 1 22.8
2014-Jul-21 20:54 086 2 22.8
2014-Jul-21 20:39 069 1 22.8
2014-Jul-21 20:25 084 1 22.8
2014-Jul-21 20:09 050 1 22.8
2014-Jul-21 19:53 004 0 22.8
2014-Jul-21 19:38 004 23.3
2014-Jul-21 19:24 004 23.3
2014-Jul-21 19:09 004 23.9
2014-Jul-21 18:52 005 24.4
2014-Jul-21 18:37 004 24.4
2014-Jul-21 18:23 005 25.0
2014-Jul-21 17:52 004 0 25.6
2014-Jul-21 17:38 054 0 25.6
2014-Jul-21 17:23 052 0 25.6
2014-Jul-21 17:06 063 0 26.1
2014-Jul-21 16:36 097 1 26.7
2014-Jul-21 16:06 067 0 26.7
2014-Jul-21 15:51 142 0 26.1
2014-Jul-21 15:35 021 0 24.4
2014-Jul-21 15:22 015 0 24.4
2014-Jul-21 15:04 112 1 26.7
2014-Jul-21 14:50 345 0 26.7
2014-Jul-21 14:34 081 1 26.1
2014-Jul-21 14:19 017 0 26.7
2014-Jul-21 14:04 323 4 27.2
2014-Jul-21 13:49 344 2 27.2
2014-Jul-21 13:34 117 2 27.2
2014-Jul-21 13:18 048 2 26.7
2014-Jul-21 13:03 133 1 26.7
2014-Jul-21 12:50 073 1 26.1
2014-Jul-21 12:34 229 1 26.7
2014-Jul-21 12:17 254 2 25.6
2014-Jul-21 12:03 277 3 25.6
2014-Jul-21 11:48 318 3 26.1
2014-Jul-21 11:32 269 2 25.6
2014-Jul-21 11:18 269 3 24.4
2014-Jul-21 11:03 120 1 25.0
2014-Jul-21 10:33 318 1 24.4
2014-Jul-21 10:17 294 1 24.4
2014-Jul-21 10:01 283 2 24.4
2014-Jul-21 09:47 238 1 23.9
2014-Jul-21 09:32 217 2 24.4
2014-Jul-21 09:16 290 1 23.9
2014-Jul-21 09:01 358 0 23.3
2014-Jul-21 08:47 284 0 23.3
2014-Jul-21 08:32 024 0 22.2
2014-Jul-21 08:15 317 0 22.2
2014-Jul-21 08:00 252 1 21.7
2014-Jul-21 07:44 262 1 21.1
2014-Jul-21 07:29 192 0 21.1
2014-Jul-21 07:14 171 0 21.1
2014-Jul-21 07:00 246 0 20.6
2014-Jul-21 06:43 244 0 20.0
2014-Jul-21 06:28 207 20.0
2014-Jul-21 06:12 207 0 19.4
2014-Jul-21 05:58 143 0 20.0
2014-Jul-21 05:42 051 1 20.0
2014-Jul-21 05:27 038 0 18.9
2014-Jul-21 05:13 038 18.3
2014-Jul-21 04:57 038 17.8
2014-Jul-21 04:41 041 0 17.8
2014-Jul-21 04:26 046 0 17.8
2014-Jul-21 04:11 048 0 17.2
2014-Jul-21 03:56 048 0 17.2
2014-Jul-21 03:42 048 0 17.2
2014-Jul-21 03:26 047 0 17.2
2014-Jul-21 03:10 048 0 16.7
2014-Jul-21 02:55 047 0 16.7
2014-Jul-21 02:39 047 1 16.7
2014-Jul-21 02:24 048 0 17.2
2014-Jul-21 02:09 048 16.7
2014-Jul-21 01:53 047 0 16.7
2014-Jul-21 01:39 048 0 17.2
2014-Jul-21 01:24 048 16.7
2014-Jul-21 01:08 047 0 17.2
2014-Jul-21 00:53 048 0 16.7
2014-Jul-21 00:38 049 0 17.2
2014-Jul-21 00:22 049 0 17.2
2014-Jul-21 00:08 049 0 17.8
2014-Jul-20 23:52 063 0 17.8
2014-Jul-20 23:37 063 0 17.8
2014-Jul-20 23:22 069 1 18.3
2014-Jul-20 23:07 116 0 18.3
2014-Jul-20 22:52 116 18.9
2014-Jul-20 22:36 116 18.3
2014-Jul-20 22:21 116 18.9
2014-Jul-20 21:51 116 19.4
2014-Jul-20 21:34 094 1 19.4
2014-Jul-20 21:20 092 2 19.4
2014-Jul-20 21:05 052 2 19.4
2014-Jul-20 20:48 059 1 19.4
2014-Jul-20 20:33 038 0 19.4
2014-Jul-20 20:18 038 0 19.4
2014-Jul-20 20:03 038 20.0
2014-Jul-20 19:48 038 0 20.6
2014-Jul-20 19:32 038 0 21.1
2014-Jul-20 19:17 038 0 21.1
2014-Jul-20 19:02 038 0 21.1
2014-Jul-20 18:48 038 0 21.7
2014-Jul-20 18:33 037 0 22.2
2014-Jul-20 18:17 034 0 22.8
2014-Jul-20 18:01 053 0 22.8
2014-Jul-20 17:46 058 0 23.3
2014-Jul-20 17:31 094 0 23.3
2014-Jul-20 16:46 037 1 24.4
2014-Jul-20 16:32 110 1 24.4
2014-Jul-20 16:15 014 2 24.4
2014-Jul-20 15:59 106 2 25.0
2014-Jul-20 15:45 012 1 25.0
2014-Jul-20 15:29 052 2 24.4
2014-Jul-20 15:14 128 1 25.0
2014-Jul-20 14:58 063 1 25.0
2014-Jul-20 14:43 067 2 25.0
2014-Jul-20 14:29 036 2 24.4
2014-Jul-20 14:13 074 1 24.4
2014-Jul-20 13:57 048 2 25.0
2014-Jul-20 13:42 124 2 24.4
2014-Jul-20 13:27 074 3 23.9
2014-Jul-20 13:13 079 2 23.9
2014-Jul-20 12:43 129 2 24.4
2014-Jul-20 12:27 089 3 23.3
2014-Jul-20 12:11 063 2 24.4
2014-Jul-20 11:56 221 3 23.3
2014-Jul-20 11:41 081 2 23.3
2014-Jul-20 11:26 142 4 22.8
2014-Jul-20 11:11 020 2 22.8